Tracking 18840 objects as of 19-November-2017
HD Live streaming from Space Station
objects crossing your sky now

FENGYUN 1C DEB

Track FENGYUN 1C DEB now!
10-day predictions


NORAD ID: 29873
Int'l Code: 1999-025FT
Perigee: 850.0 km
Apogee: 983.4 km
Inclination: 99.3 °
Period: 103.2 minutes
Semi major axis: 7287 km
RCS: 0.0634 m2 (small)
Launch date: May 10, 1999
Source: People's Republic of China (PRC)
Launch site: Taiyaun Space Center, China (TSC)

Note: This is SATELLITE DEBRIS
aabbcc
Your satellite tracking list
Your tracking list is empty




NASA's NSSDC Master Catalog

Two Line Element Set (TLE):
1 29873U 99025FT  17322.55494308 +.00000140 +00000-0 +13257-3 0  9993
2 29873 099.3022 070.4782 0091534 263.5410 161.5224 13.95449428551985
Source of the keplerian elements: AFSPC